FW6349 Weather Reports


time (UTC)temp
F
wind
direction
speed
knots
gust
knots
rain 1hr
in
rain 24hr
in
rain mn
in
humidity
%
barometer
mb
20260504045821 57 198 1.7 3.5 0.00 0.00 0.00 47 999.1
20260504044830 57 187 1.7 1.7 0.00 0.00 0.00 46 999.1
20260504043821 57 181 1.7 2.6 0.00 0.00 0.00 46 999.4
20260504042837 57 199 1.7 2.6 0.00 0.00 0.00 46 999.7
20260504041822 57 198 0.9 1.7 0.00 0.00 0.00 46 999.7
20260504040836 57 186 1.7 1.7 0.00 0.00 0.00 46 1000.2
20260504035821 56 199 0.9 1.7 0.00 0.00 0.00 47 1000.4
20260504034830 56 188 0.9 0.9 0.00 0.00 0.00 47 1000.5
20260504033822 56 193 0.9 0.9 0.00 0.00 0.00 47 1000.7
20260504032857 57 202 0.9 0.9 0.00 0.00 0.00 45 1000.9
20260504031821 58 186 0.9 0.9 0.00 0.00 0.00 43 1001.1
20260504030836 59 192 0.9 0.9 0.00 0.00 0.00 42 1001.4
20260504025821 60 203 0.9 1.7 0.00 0.00 0.00 41 1001.4
20260504024831 60 202 0.9 1.7 0.00 0.00 0.00 41 1001.4
20260504023822 60 202 0.9 0.9 0.00 0.00 0.00 41 1001.6
20260504022837 60 201 0.0 0.9 0.00 0.00 0.00 41 1001.6
20260504021841 61 203 0.0 0.9 0.00 0.00 0.00 40 1001.8
20260504020836 61 200 0.9 1.7 0.00 0.00 0.00 38 1001.7
20260504015821 61 194 0.9 0.9 0.00 0.00 0.00 38 1001.7
20260504014832 62 0.0 0.0 0.00 0.00 0.00 37 1001.6
20260504013822 63 203 0.0 0.9 0.00 0.00 0.00 35 1001.6
20260504012837 64 198 0.9 0.9 0.00 0.00 0.00 34 1001.7
20260504011822 65 207 0.9 0.9 0.00 0.00 0.00 33 1001.7
20260504010836 67 215 0.9 1.7 0.00 0.00 0.00 31 1001.7
20260504005821 68 220 1.7 1.7 0.00 0.00 0.00 30 1001.8
20260504004833 68 234 1.7 3.5 0.00 0.00 0.00 29 1001.8
20260504003822 69 230 3.5 5.2 0.00 0.00 0.00 29 1002.0
20260504002837 69 232 1.7 3.5 0.00 0.00 0.00 30 1002.0
20260504001821 68 224 0.9 1.7 0.00 0.00 0.00 31 1002.1
20260504000836 70 281 1.7 5.2 0.00 0.00 0.00 30 1002.2
20260503235822 69 236 2.6 3.5 0.00 0.00 0.00 31 1002.1
20260503234854 69 228 2.6 5.2 0.00 0.00 0.00 30 1002.2
20260503233821 69 275 3.5 5.2 0.00 0.00 0.00 30 1002.2
20260503232837 71 246 4.3 7.8 0.00 0.00 0.00 29 1002.2
20260503231836 71 283 5.2 8.7 0.00 0.00 0.00 27 1002.3
20260503230836 72 250 0.9 1.7 0.00 0.00 0.00 28 1002.4
20260503225822 71 283 3.5 3.5 0.00 0.00 0.00 28 1002.4
20260503224835 71 317 5.2 7.8 0.00 0.00 0.00 28 1002.6
20260503223842 71 309 2.6 3.5 0.00 0.00 0.00 29 1002.7
20260503222916 71 25 2.6 3.5 0.00 0.00 0.00 29 1002.7
20260503221821 71 302 3.5 6.1 0.00 0.00 0.00 28 1002.7
20260503220836 71 321 3.5 5.2 0.00 0.00 0.00 29 1002.6
20260503215822 71 261 2.6 3.5 0.00 0.00 0.00 27 1002.9
20260503214836 70 266 0.9 2.6 0.00 0.00 0.00 29 1002.9
20260503213822 70 288 4.3 7.0 0.00 0.00 0.00 28 1003.1
20260503212815 70 16 4.3 7.0 0.00 0.00 0.00 29 1003.3
20260503211822 69 258 2.6 5.2 0.00 0.00 0.00 29 1003.4
20260503210837 69 241 4.3 12.2 0.00 0.00 0.00 30 1003.4
20260503205822 69 327 2.6 5.2 0.00 0.00 0.00 29 1003.4
20260503204857 69 319 2.6 6.1 0.00 0.00 0.00 28 1003.5
20260503203822 68 174 4.3 7.0 0.00 0.00 0.00 31 1003.7
20260503202814 69 261 3.5 6.1 0.00 0.00 0.00 30 1003.6
20260503201836 68 22 3.5 6.1 0.00 0.00 0.00 29 1003.7
20260503200857 69 353 5.2 7.8 0.00 0.00 0.00 29 1003.9
20260503195822 69 338 4.3 8.7 0.00 0.00 0.00 30 1003.9
20260503194837 68 284 6.1 11.3 0.00 0.00 0.00 28 1004.1
20260503193903 69 284 4.3 8.7 0.00 0.00 0.00 30 1004.1
20260503192854 68 258 4.3 7.8 0.00 0.00 0.00 31 1004.0
20260503191823 68 305 6.1 8.7 0.00 0.00 0.00 31 1004.3
20260503190837 68 9 4.3 7.8 0.00 0.00 0.00 33 1004.3
20260503185822 67 302 7.8 13.0 0.00 0.00 0.00 34 1004.5
20260503184837 68 298 7.8 12.2 0.00 0.00 0.00 33 1004.5
20260503183822 67 346 4.3 8.7 0.00 0.00 0.00 35 1004.4
20260503182814 67 323 4.3 8.7 0.00 0.00 0.00 32 1004.6
20260503181822 68 14 7.8 14.8 0.00 0.00 0.00 29 1004.6
20260503180836 68 335 4.3 7.8 0.00 0.00 0.00 36 1004.8
20260503175822 67 11 6.1 9.6 0.00 0.00 0.00 37 1004.7
20260503174837 67 315 5.2 12.2 0.00 0.00 0.00 40 1004.7
20260503173823 67 9 6.1 12.2 0.00 0.00 0.00 37 1004.7
20260503172815 67 18 4.3 7.8 0.00 0.00 0.00 38 1004.8
20260503171836 67 355 4.3 8.7 0.00 0.00 0.00 40 1004.9
20260503170856 67 8 5.2 9.6 0.00 0.00 0.00 41 1004.8
20260503150836 62 288 3.5 8.7 0.00 0.00 0.00 49 1004.7
20260503130815 56 16 2.6 3.5 0.00 0.00 0.00 57 1003.8
20260503080837 57 208 1.7 2.6 0.00 0.00 0.00 56 1003.0
20260503072816 57 215 1.7 3.5 0.00 0.00 0.00 56 1003.3
20260503071824 57 202 2.6 3.5 0.00 0.00 0.00 56 1003.4
20260503070815 57 195 2.6 2.6 0.00 0.00 0.00 55 1003.5